[[{"header":{"parameterUnit":"m.s-1","parameterCategory":1,"la1":30.2991,"la2":30.254,"lo1":-89.0895,"lo2":-89.0444,"dy":0.0017,"dx":0.0017,"nx":28,"ny":28,"refTime":"2023-05-01T21:00:00:Z","depth":0,"parameterNumber":2,"parameterNumberName":"U-component_of_WINDS"},"data":[0,0,0,0,0,0,0,0,0,0,0,0,0,0,0,0,0,0,0,0,0,0,0,0,0,0,0,0,0,0,0,0,0,0,0,0,0,0,0,0,0,0,0,0,0,0,0,0,0,0,0,0,0,0,0,0,0,0,3.4353,3.4353,0,3.4373,3.4373,3.4374,3.4389,3.4389,3.4389,3.4389,3.441,3.4411,3.4411,0,0,0,0,0,0,0,0,0,0,0,0,0,3.4331,3.4332,3.4353,3.4353,3.4354,3.4373,3.4373,3.4374,3.4389,3.4389,3.4389,3.4389,3.441,3.4411,3.4411,0,0,0,0,0,0,0,0,0,0,0,0,0,3.4345,3.4332,3.4353,3.4364,3.4365,3.4373,3.4373,3.4374,3.4389,3.4389,3.4389,3.4389,3.441,3.4411,3.4411,3.4411,0,0,3.4413,3.4413,0,0,0,0,0,0,0,0,3.4344,3.4346,3.4362,3.4363,3.4364,3.4379,3.4373,3.4386,3.4389,3.438,3.4389,3.439,3.44,3.4401,3.4404,3.4412,3.4413,3.4413,3.4414,3.4414,3.4414,0,0,0,0,0,0,0,3.4343,3.4345,3.4361,3.4362,3.4363,3.4368,3.4371,3.4376,3.4388,3.438,3.4382,3.4384,3.44,3.4404,3.4405,3.4413,3.4413,3.4414,3.4414,3.4414,3.4426,3.4426,0,0,0,0,0,0,3.434,3.4344,3.436,3.4362,3.4355,3.4369,3.4371,3.4374,3.4388,3.4391,3.4384,3.4384,3.4403,3.4404,3.4406,3.4409,3.4414,3.4414,3.4415,3.4426,3.4426,3.4426,0,0,0,0,0,0,3.434,3.4342,3.436,3.4353,3.4356,3.4369,3.4372,3.4374,3.4378,3.4391,3.4393,3.4385,3.4403,3.4405,3.441,3.441,3.4415,3.4415,3.4426,3.4426,3.4426,3.4413,0,0,0,0,0,0,3.4339,3.4341,3.434,3.4353,3.4356,3.4363,3.4372,3.4374,3.4379,3.438,3.4392,3.4394,3.4403,3.4409,3.4411,3.4411,3.4416,3.4426,3.4426,3.4426,3.4414,3.4413,3.4412,0,0,0,0,0,3.4338,3.4335,3.434,3.4342,3.4355,3.4362,3.4364,3.4374,3.4378,3.4378,3.4387,3.4394,3.441,3.441,3.4412,3.4411,3.4426,3.4426,3.4426,3.4414,3.4413,3.4412,0,0,0,0,0,0,3.4321,3.4337,3.4342,3.4343,3.4352,3.4365,3.4365,3.4372,3.4379,3.438,3.4393,3.4395,3.44,3.4407,3.4406,3.4414,3.4419,3.4419,3.4409,3.4408,3.4407,3.4406,3.4416,0,0,0,0,0,3.4317,3.4321,3.4335,3.4335,3.4339,3.4351,3.4355,3.4362,3.4371,3.4375,3.4384,3.4393,3.4401,3.4405,3.4412,3.4415,3.442,3.4417,3.4416,3.4415,3.4415,3.442,3.4419,3.4425,3.4425,3.4425,0,0,3.4309,3.4319,3.432,3.4332,3.4339,3.4344,3.4354,3.4358,3.4363,3.4375,3.4382,3.4389,3.4401,3.4406,3.4409,3.4411,3.4415,3.4414,3.4414,3.4414,3.442,3.4419,3.4419,3.4425,3.4425,3.4425,0,0,3.4298,3.4304,3.4306,3.4314,3.4326,3.4335,3.4335,3.4349,3.4355,3.4361,3.4372,3.4379,3.439,3.4399,3.4404,3.4401,3.4409,3.4404,3.4398,3.4403,3.4403,3.4403,3.4403,3.4403,3.4404,3.4404,3.4404,0,3.4286,3.4294,3.4306,3.4311,3.4317,3.433,3.4333,3.434,3.4353,3.4358,3.4361,3.4379,3.4387,3.4396,3.4396,3.4399,3.4402,3.4401,3.4402,3.4402,3.4402,3.4402,3.4402,3.4403,3.4403,3.4403,3.4403,0,3.428,3.4286,3.4286,3.43,3.4306,3.431,3.4324,3.4329,3.4338,3.4347,3.4356,3.4367,3.4378,3.4381,3.4388,3.4392,3.4394,3.4399,3.4404,3.44,3.4401,3.4402,3.4402,3.4402,3.4402,3.4403,0,0,3.4255,3.4279,3.4278,3.4287,3.4302,3.4308,3.4314,3.4326,3.4331,3.4341,3.4347,3.4359,3.4366,3.4372,3.4381,3.4386,3.4386,3.4391,3.4392,3.4391,3.4394,3.4389,3.4389,3.4391,3.4391,3.4391,3.4393,0,3.4247,3.4257,3.4271,3.4277,3.4285,3.43,3.4306,3.4317,3.4327,3.4335,3.4347,3.4356,3.4362,3.4367,3.4372,3.4384,3.4387,3.4385,3.4399,3.4399,3.4395,3.439,3.4384,3.4385,3.4393,3.4394,3.4394,0,3.4237,3.4248,3.4256,3.4275,3.4278,3.4283,3.4297,3.4304,3.4319,3.4326,3.4336,3.4347,3.4356,3.4361,3.4376,3.4374,3.4382,3.4389,3.4389,3.4391,3.4396,3.4392,3.4385,3.4386,3.4394,3.4394,3.4394,0,3.422,3.4236,3.4244,3.425,3.4272,3.4276,3.4285,3.43,3.4307,3.432,3.4326,3.4339,3.4347,3.4358,3.4373,3.4375,3.4387,3.4392,3.4394,3.4394,3.4395,3.4394,3.439,3.4399,3.4399,3.4399,3.4399,0,3.4209,3.4213,3.4237,3.4241,3.4248,3.4265,3.4272,3.4282,3.4297,3.4305,3.4319,3.4327,3.4346,3.4357,3.4369,3.4381,3.4384,3.4391,3.4394,3.439,3.4389,3.4394,3.4394,3.4399,3.4399,3.4399,3.4399,0,3.4189,3.4205,3.4215,3.4236,3.4242,3.4246,3.4265,3.4271,3.4284,3.4294,3.4298,3.4318,3.4332,3.4348,3.4367,3.4375,3.4386,3.4391,3.4381,3.4383,3.4384,3.4384,3.4383,3.4385,3.4392,3.4392,3.4392,0,3.4181,3.4185,3.4208,3.4215,3.4224,3.4235,3.4244,3.4262,3.427,3.429,3.4294,3.431,3.4322,3.4345,3.4361,3.4377,3.4382,3.4381,3.4384,3.4381,3.4383,3.4383,3.4384,3.4379,3.4379,3.4379,3.4379,0,3.4166,3.4174,3.4186,3.4201,3.4212,3.4224,3.4238,3.4243,3.4264,3.4274,3.4289,3.4299,3.432,3.4336,3.4354,3.4366,3.4376,3.4378,3.438,3.4375,3.437,3.4374,3.4379,3.4378,3.4378,3.4378,3.4378,3.4378,3.4152,3.4158,3.4176,3.4189,3.4202,3.4215,3.4223,3.4238,3.4251,3.4269,3.428,3.4295,3.4314,3.434,3.4351,3.4365,3.4368,3.437,3.437,3.437,3.437,3.4368,3.4368,3.4368,3.4368,3.4368,3.4368,0,3.4138,3.4151,3.4164,3.4183,3.4195,3.4205,3.4222,3.4231,3.4245,3.4261,3.4275,3.4294,3.431,3.433,3.4348,3.4355,3.4361,3.4359,3.4359,3.4362,3.4365,3.4362,3.4355,3.4355,3.4355,3.4355,3.4355,3.4355,3.4132,3.4143,3.4155,3.4174,3.4187,3.4202,3.4211,3.4225,3.4238,3.4259,3.4273,3.4286,3.4305,3.4325,3.4342,3.4347,3.4354,3.4351,3.4358,3.436,3.4361,3.4362,3.436,3.4352,3.4352,3.4354,3.4354,3.4354]},{"header":{"parameterUnit":"m.s-1","parameterCategory":1,"la1":30.2991,"la2":30.254,"lo1":-89.0895,"lo2":-89.0444,"dy":0.0017,"dx":0.0017,"nx":28,"ny":28,"refTime":"2023-05-01T21:00:00:Z","depth":0,"parameterNumber":3,"parameterNumberName":"V-component_of_WINDS"},"data":[0,0,0,0,0,0,0,0,0,0,0,0,0,0,0,0,0,0,0,0,0,0,0,0,0,0,0,0,0,0,0,0,0,0,0,0,0,0,0,0,0,0,0,0,0,0,0,0,0,0,0,0,0,0,0,0,0,0,3.4463,3.4464,0,3.4529,3.453,3.4531,3.4548,3.4548,3.4547,3.4547,3.4611,3.4613,3.4615,0,0,0,0,0,0,0,0,0,0,0,0,0,3.4343,3.4345,3.4463,3.4464,3.4465,3.4529,3.453,3.4531,3.4548,3.4548,3.4547,3.4547,3.461,3.4612,3.4615,0,0,0,0,0,0,0,0,0,0,0,0,0,3.44,3.4345,3.4463,3.4481,3.4483,3.4529,3.453,3.4531,3.4548,3.4548,3.4547,3.4547,3.4609,3.4612,3.4615,3.4646,0,0,3.4625,3.4626,0,0,0,0,0,0,0,0,3.4397,3.4405,3.4478,3.448,3.4483,3.453,3.4511,3.457,3.4549,3.4524,3.4547,3.4546,3.4584,3.4589,3.4603,3.4649,3.4652,3.4625,3.4627,3.4628,3.4629,0,0,0,0,0,0,0,3.4393,3.4402,3.4489,3.4479,3.4482,3.4483,3.4491,3.4522,3.4556,3.4526,3.4527,3.4535,3.4585,3.46,3.4604,3.4653,3.4625,3.4628,3.4629,3.4631,3.4721,3.4722,0,0,0,0,0,0,3.4387,3.4399,3.4487,3.4491,3.4438,3.4486,3.4494,3.4515,3.4556,3.4562,3.4535,3.4536,3.4595,3.4601,3.4607,3.4642,3.4628,3.4631,3.4633,3.472,3.4721,3.4722,0,0,0,0,0,0,3.4384,3.4395,3.4484,3.4445,3.4457,3.4489,3.4512,3.4517,3.4532,3.4563,3.4569,3.4545,3.4594,3.4602,3.4635,3.4644,3.4632,3.4635,3.472,3.4721,3.4721,3.4715,0,0,0,0,0,0,3.4381,3.4394,3.4408,3.4446,3.4459,3.4514,3.4513,3.4519,3.4537,3.4538,3.4573,3.4579,3.4595,3.463,3.4638,3.4648,3.4638,3.4719,3.472,3.4721,3.4714,3.4715,3.4716,0,0,0,0,0,3.4376,3.4404,3.4409,3.4419,3.4478,3.4515,3.4522,3.4542,3.4538,3.4551,3.457,3.4577,3.4642,3.4634,3.4642,3.4654,3.4719,3.472,3.4721,3.4714,3.4715,3.4716,0,0,0,0,0,0,3.4367,3.4409,3.4415,3.4456,3.4482,3.4518,3.4536,3.4543,3.4569,3.4569,3.459,3.4597,3.4628,3.4644,3.4634,3.4683,3.468,3.4683,3.4671,3.4673,3.4674,3.4669,3.464,0,0,0,0,0,3.437,3.4398,3.4433,3.4465,3.4478,3.4504,3.4521,3.4533,3.456,3.4571,3.4593,3.4617,3.4642,3.4658,3.4684,3.4716,3.4722,3.4728,3.4729,3.4729,3.4732,3.4745,3.4748,3.4726,3.4726,3.4726,0,0,3.4376,3.4402,3.4419,3.4464,3.4485,3.4511,3.4513,3.4542,3.456,3.4575,3.4607,3.4623,3.465,3.4682,3.4697,3.4697,3.4738,3.4731,3.4731,3.4733,3.4747,3.4749,3.4751,3.4727,3.4726,3.4726,0,0,3.4399,3.4424,3.4451,3.4472,3.4504,3.452,3.4526,3.456,3.4571,3.4604,3.4613,3.4634,3.4679,3.4696,3.4711,3.4735,3.4741,3.4742,3.4747,3.4761,3.4762,3.4764,3.477,3.4772,3.4745,3.4745,3.4745,0,3.4402,3.4444,3.4464,3.4491,3.4509,3.4522,3.4547,3.4566,3.4604,3.4614,3.4613,3.4665,3.4685,3.4719,3.4724,3.4737,3.4742,3.4739,3.4761,3.4763,3.4764,3.477,3.4772,3.4744,3.4744,3.4744,3.4744,0,3.4444,3.4472,3.449,3.4526,3.4545,3.4572,3.4592,3.4609,3.4618,3.4633,3.4662,3.4686,3.4714,3.4723,3.4733,3.4757,3.4755,3.4757,3.4755,3.4766,3.4771,3.4774,3.4744,3.4744,3.4744,3.4744,0,0,3.4467,3.451,3.4516,3.453,3.4564,3.4585,3.4609,3.4637,3.4649,3.4673,3.4692,3.4726,3.4727,3.4743,3.4754,3.4766,3.4779,3.4766,3.4767,3.4766,3.4803,3.4801,3.4803,3.4783,3.4783,3.4784,3.48,0,3.4493,3.4539,3.4555,3.4592,3.4615,3.4625,3.4646,3.4667,3.468,3.47,3.4714,3.4737,3.4738,3.4747,3.476,3.4775,3.4786,3.4774,3.4798,3.4798,3.479,3.4806,3.4805,3.482,3.4802,3.4803,3.4803,0,3.453,3.4554,3.4593,3.4619,3.4629,3.4648,3.4672,3.4692,3.4714,3.4722,3.4739,3.4748,3.4769,3.4765,3.4793,3.4784,3.4794,3.4803,3.4804,3.4806,3.4801,3.4808,3.4825,3.4827,3.4807,3.4807,3.4806,0,3.4539,3.4581,3.4608,3.462,3.4652,3.4664,3.4678,3.4699,3.4713,3.4733,3.4742,3.4764,3.4776,3.4792,3.4805,3.4801,3.4831,3.4828,3.4836,3.4836,3.4843,3.4842,3.486,3.485,3.485,3.485,3.485,0,3.4566,3.4588,3.4612,3.4629,3.4653,3.4669,3.4692,3.4706,3.4723,3.4741,3.4751,3.4766,3.4783,3.48,3.481,3.483,3.4836,3.4841,3.4843,3.484,3.4839,3.4847,3.4846,3.4851,3.4851,3.4851,3.485,0,3.458,3.4597,3.4627,3.4654,3.4661,3.4677,3.4698,3.4713,3.4726,3.4747,3.4753,3.4772,3.4792,3.4806,3.4832,3.4838,3.4859,3.4862,3.4852,3.4853,3.4859,3.4858,3.4883,3.4886,3.4875,3.4875,3.4875,0,3.4595,3.4613,3.464,3.4653,3.4666,3.4686,3.47,3.4715,3.4728,3.4752,3.4763,3.4783,3.4801,3.4831,3.4846,3.4864,3.4867,3.4874,3.487,3.4864,3.4865,3.4863,3.4864,3.4875,3.4875,3.4875,3.4875,0,3.462,3.4626,3.4647,3.4668,3.4684,3.4702,3.472,3.4729,3.4747,3.4761,3.4781,3.4794,3.4819,3.4838,3.4858,3.4869,3.4873,3.4876,3.4878,3.4875,3.4867,3.4869,3.4852,3.4875,3.4875,3.4875,3.4875,3.4875,3.4633,3.4648,3.4668,3.4689,3.4704,3.4719,3.4733,3.4747,3.4764,3.4786,3.4793,3.4813,3.483,3.4857,3.4867,3.4882,3.4881,3.4886,3.4886,3.4887,3.4886,3.4865,3.4885,3.4885,3.4885,3.4885,3.4885,0,3.4656,3.4669,3.4688,3.4712,3.4727,3.4731,3.4749,3.4761,3.4779,3.4795,3.4811,3.4832,3.485,3.4865,3.4882,3.489,3.4893,3.4894,3.4893,3.4895,3.4886,3.4881,3.4892,3.4892,3.4892,3.4892,3.4892,3.4892,3.4669,3.4693,3.4701,3.473,3.4742,3.4762,3.4772,3.4785,3.4798,3.4821,3.4836,3.4845,3.486,3.4877,3.4892,3.4896,3.4901,3.4902,3.4906,3.4897,3.4896,3.4895,3.4891,3.4903,3.4903,3.4914,3.4914,3.4914]}]]